Location: Centerville
(32.8776°N, 96.6203°W)
Time: 02:09:09
(UTC+00:00)

CZ-2C R/B - Pass Details

Date: 17 June 2021
Orbit: 500 x 566 km, 97.7° (Epoch: 27 July)

Event Time Altitude Azimuth Distance (km) Brightness Sun altitude
Rises 10:36:33 0° 3° (N) 2,695 6.9 -8.2°
Reaches altitude 10° 10:38:45 10° 357° (N) 1,788 5.9 -7.9°
Maximum altitude 10:42:24 42° 286° (WNW) 757 3.2 -7.2°
Drops below altitude 10° 10:45:58 10° 214° (SW) 1,740 4.8 -6.6°
Enters shadow 10:46:52 - 211° (SSW) 2,105 5.2 -6.4°
